Powrót do katalogu

DELTA 1 DEB

AktywnySSO
NORAD 7076·DEBRIS·🇺🇸 United States

Wystrzelony Nov 6, 1973 z Vandenberg Space Force Base

Loading…

Następne Przeloty (najbliższe 24 godziny)

TLE

ŚwieżeSource: Space-Track

Epoka: Sep 14, 2026, 11:46 UTC

1 07076U 73086BU  26257.49053483 -.00000038  00000-0  65096-4 0  9994
2 07076 102.3050 259.4593 0011764 267.8281 259.6736 12.39871185391380

Śledź DELTA 1 DEB w czasie rzeczywistym z AllMySat

Download on the App Store